Voltar ao catálogo

COSMOS 1275 DEB

AtivoPO
NORAD 13808·DEBRIS·🇷🇺 Russia

Lançado Jun 4, 1981 de Plesetsk Cosmodrome

Loading…

Próximas Passagens (próximas 24 horas)

TLE

AtualizadoSource: Space-Track

Época: Sep 14, 2026, 19:44 UTC

1 13808U 81053HC  26257.82249431  .00000918  00000-0  67269-3 0  9993
2 13808  83.0284 271.5895 0058050 226.1427 309.9626 13.94090158202779

Acompanhe COSMOS 1275 DEB em tempo real com AllMySat

Download on the App Store